�������l�o���
Date,Time,MP-1(��Sv/h),MP-2(��Sv/h),MP-3(��Sv/h),MP-4(��Sv/h),MP-5(��Sv/h),MP-6(��Sv/h),MP-7(��Sv/h),MP-8(��Sv/h),����,����(m/s),���J
2019/06/23,00:00,0.747,1.050,0.722,1.307,0.949,0.426,0.742,0.701,�k,7.1,��
2019/06/23,00:10,0.745,1.051,0.724,1.305,0.953,0.426,0.743,0.701,�k,6.5,��
2019/06/23,00:20,0.745,1.054,0.723,1.307,0.954,0.426,0.741,0.701,�k,7.1,��
2019/06/23,00:30,0.746,1.054,0.722,1.309,0.952,0.426,0.742,0.702,�k,6.9,��
2019/06/23,00:40,0.745,1.053,0.721,1.306,0.951,0.425,0.741,0.703,�k,6.9,�L
2019/06/23,00:50,0.746,1.054,0.721,1.307,0.952,0.424,0.741,0.702,�k,6.8,�L
2019/06/23,01:00,0.744,1.053,0.722,1.308,0.953,0.424,0.742,0.703,�k,7.3,��
2019/06/23,01:10,0.745,1.052,0.722,1.310,0.951,0.424,0.742,0.703,�k,7.1,�L
2019/06/23,01:20,0.745,1.053,0.721,1.307,0.949,0.425,0.740,0.703,�k,6.1,�L
2019/06/23,01:30,0.746,1.052,0.721,1.309,0.951,0.425,0.740,0.702,�k,6.5,�L
2019/06/23,01:40,0.740,1.044,0.718,1.305,0.946,0.424,0.738,0.701,�k,7.2,�L
2019/06/23,01:50,0.739,1.046,0.718,1.299,0.947,0.424,0.738,0.699,�k,7.0,�L
2019/06/23,02:00,0.741,1.041,0.714,1.298,0.944,0.423,0.739,0.698,�k�k��,6.7,�L
2019/06/23,02:10,0.739,1.041,0.715,1.298,0.946,0.423,0.737,0.700,�k�k��,6.5,�L
2019/06/23,02:20,0.739,1.041,0.716,1.298,0.946,0.424,0.737,0.698,�k�k��,6.4,�L
2019/06/23,02:30,0.741,1.042,0.716,1.298,0.944,0.422,0.738,0.700,�k�k��,6.8,��
2019/06/23,02:40,0.740,1.042,0.716,1.295,0.944,0.424,0.738,0.699,�k�k��,8.5,�L
2019/06/23,02:50,0.741,1.042,0.716,1.298,0.944,0.423,0.738,0.699,�k�k��,7.8,��
2019/06/23,03:00,0.741,1.046,0.715,1.297,0.945,0.424,0.737,0.699,�k�k��,7.6,�L
2019/06/23,03:10,0.742,1.045,0.719,1.299,0.948,0.424,0.739,0.702,�k�k��,7.9,�L
2019/06/23,03:20,0.740,1.042,0.717,1.300,0.947,0.423,0.738,0.701,�k�k��,8.6,�L
2019/06/23,03:30,0.740,1.046,0.716,1.297,0.948,0.427,0.737,0.703,�k�k��,7.2,��
2019/06/23,03:40,0.741,1.042,0.717,1.297,0.947,0.424,0.737,0.703,�k�k��,8.6,��
2019/06/23,03:50,0.741,1.043,0.717,1.298,0.949,0.424,0.737,0.702,�k�k��,6.2,��
2019/06/23,04:00,0.741,1.044,0.719,1.297,0.948,0.423,0.737,0.702,�k,6.7,��
2019/06/23,04:10,0.739,1.041,0.718,1.299,0.948,0.425,0.738,0.702,�k,6.7,�L
2019/06/23,04:20,0.740,1.044,0.719,1.299,0.947,0.423,0.738,0.700,�k,8.4,�L
2019/06/23,04:30,0.739,1.043,0.717,1.298,0.947,0.424,0.737,0.701,�k�k��,7.9,�L
2019/06/23,04:40,0.738,1.043,0.717,1.298,0.946,0.424,0.737,0.701,�k�k��,7.4,�L
2019/06/23,04:50,0.738,1.043,0.720,1.299,0.948,0.423,0.737,0.699,�k�k��,6.8,��
2019/06/23,05:00,0.739,1.040,0.717,1.296,0.946,0.423,0.737,0.700,�k�k��,6.4,��
2019/06/23,05:10,0.738,1.042,0.717,1.297,0.946,0.422,0.737,0.699,�k�k��,5.7,�L
2019/06/23,05:20,0.737,1.038,0.716,1.297,0.945,0.423,0.738,0.700,�k�k��,7.3,�L
2019/06/23,05:30,0.738,1.040,0.715,1.297,0.945,0.423,0.736,0.701,�k,5.9,�L
2019/06/23,05:40,0.736,1.038,0.715,1.297,0.944,0.423,0.737,0.700,�k,7.1,�L
2019/06/23,05:50,0.735,1.033,0.714,1.293,0.940,0.422,0.735,0.699,�k,7.5,�L
2019/06/23,06:00,0.734,1.037,0.715,1.292,0.939,0.423,0.735,0.699,�k,7.0,�L
2019/06/23,06:10,0.736,1.035,0.714,1.293,0.938,0.422,0.736,0.699,�k,5.3,�L
2019/06/23,06:20,0.737,1.036,0.711,1.292,0.940,0.422,0.735,0.700,�k�k��,7.0,�L
2019/06/23,06:30,0.736,1.034,0.712,1.291,0.939,0.422,0.736,0.700,�k,7.5,�L
2019/06/23,06:40,0.735,1.037,0.713,1.287,0.938,0.422,0.735,0.698,�k�k��,9.0,�L
2019/06/23,06:50,0.736,1.034,0.713,1.291,0.940,0.423,0.736,0.698,�k�k��,7.2,�L
2019/06/23,07:00,0.736,1.037,0.714,1.290,0.942,0.424,0.736,0.699,�k�k��,6.7,�L
2019/06/23,07:10,0.737,1.036,0.714,1.291,0.942,0.422,0.737,0.701,�k�k��,6.2,�L
2019/06/23,07:20,0.735,1.040,0.713,1.291,0.942,0.422,0.735,0.701,�k�k��,7.3,��
2019/06/23,07:30,0.738,1.039,0.715,1.292,0.941,0.422,0.738,0.700,�k�k��,6.9,��
2019/06/23,07:40,0.737,1.039,0.712,1.292,0.943,0.424,0.736,0.700,�k�k��,5.4,��
2019/06/23,07:50,0.737,1.039,0.714,1.292,0.941,0.424,0.736,0.701,�k�k��,5.3,�L
2019/06/23,08:00,0.736,1.039,0.716,1.295,0.943,0.421,0.737,0.701,�k�k��,5.7,��
2019/06/23,08:10,0.737,1.038,0.713,1.293,0.943,0.422,0.737,0.702,�k�k��,5.2,��
2019/06/23,08:20,0.736,1.040,0.717,1.293,0.945,0.424,0.738,0.699,�k,5.1,�L
2019/06/23,08:30,0.739,1.039,0.715,1.292,0.943,0.423,0.736,0.700,�k,6.0,�L
2019/06/23,08:40,0.737,1.036,0.717,1.293,0.943,0.424,0.738,0.702,�k�k��,5.5,�L
2019/06/23,08:50,0.738,1.040,0.716,1.294,0.945,0.423,0.737,0.702,�k,5.9,��
2019/06/23,09:00,0.736,1.040,0.715,1.296,0.946,0.423,0.739,0.701,�k�k��,5.0,�L
2019/06/23,09:10,0.739,1.040,0.717,1.295,0.948,0.424,0.738,0.701,�k�k��,4.5,�L
2019/06/23,09:20,0.738,1.041,0.719,1.296,0.947,0.425,0.738,0.700,�k,4.0,�L
2019/06/23,09:30,0.738,1.039,0.716,1.293,0.944,0.423,0.738,0.699,�k,5.6,�L
2019/06/23,09:40,0.739,1.039,0.716,1.295,0.945,0.425,0.737,0.700,�k,6.4,��
2019/06/23,09:50,0.740,1.041,0.718,1.297,0.948,0.423,0.738,0.701,�k,6.6,��
2019/06/23,10:00,0.739,1.040,0.718,1.295,0.948,0.422,0.738,0.701,�k,6.4,��
2019/06/23,10:10,0.739,1.042,0.718,1.298,0.947,0.422,0.738,0.701,�k,5.9,��
2019/06/23,10:20,0.741,1.045,0.717,1.297,0.947,0.423,0.739,0.699,�k,6.5,��
2019/06/23,10:30,0.741,1.044,0.719,1.294,0.948,0.423,0.741,0.702,�k,5.0,��
2019/06/23,10:40,0.743,1.046,0.717,1.295,0.949,0.424,0.741,0.701,�k�k��,5.9,��
2019/06/23,10:50,0.744,1.046,0.718,1.296,0.948,0.424,0.740,0.703,�k�k��,6.2,��
2019/06/23,11:00,0.743,1.047,0.717,1.297,0.949,0.425,0.741,0.701,�k�k��,5.7,��
2019/06/23,11:10,0.743,1.050,0.718,1.301,0.951,0.424,0.741,0.702,�k,7.6,��
2019/06/23,11:20,0.746,1.048,0.718,1.295,0.951,0.425,0.744,0.703,�k�k��,7.9,��
2019/06/23,11:30,0.746,1.049,0.719,1.296,0.951,0.425,0.742,0.703,�k�k��,8.1,��
2019/06/23,11:40,0.745,1.053,0.719,1.298,0.952,0.425,0.741,0.703,�k�k��,7.5,��
2019/06/23,11:50,0.747,1.054,0.718,1.298,0.952,0.426,0.743,0.703,�k�k��,8.0,��
2019/06/23,12:00,0.747,1.054,0.721,1.296,0.954,0.425,0.741,0.703,�k�k��,7.7,��
2019/06/23,12:10,0.747,1.054,0.720,1.299,0.953,0.426,0.740,0.703,�k�k��,8.4,��
2019/06/23,12:20,0.748,1.055,0.722,1.300,0.956,0.425,0.743,0.704,�k�k��,7.7,��
2019/06/23,12:30,0.749,1.053,0.722,1.300,0.954,0.425,0.742,0.703,�k�k��,7.6,��
2019/06/23,12:40,0.746,1.054,0.720,1.300,0.955,0.425,0.742,0.703,�k�k��,6.9,��
2019/06/23,12:50,0.746,1.056,0.720,1.298,0.956,0.424,0.742,0.705,�k��,7.1,��
2019/06/23,13:00,0.748,1.057,0.722,1.300,0.955,0.425,0.744,0.703,�k��,5.6,��
2019/06/23,13:10,0.748,1.059,0.721,1.301,0.957,0.427,0.743,0.704,�k��,5.3,��
2019/06/23,13:20,0.748,1.057,0.722,1.300,0.958,0.425,0.742,0.705,�k��,4.2,��
2019/06/23,13:30,0.748,1.057,0.722,1.302,0.958,0.425,0.742,0.704,�k��,3.5,��
2019/06/23,13:40,0.748,1.059,0.723,1.304,0.959,0.427,0.743,0.704,�k��,4.7,��
2019/06/23,13:50,0.748,1.060,0.721,1.300,0.959,0.427,0.743,0.704,�k�k��,4.7,��
2019/06/23,14:00,0.748,1.059,0.722,1.303,0.959,0.426,0.745,0.705,�k��,6.3,��
2019/06/23,14:10,0.749,1.060,0.723,1.301,0.958,0.428,0.743,0.703,�k��,5.9,��
2019/06/23,14:20,0.748,1.061,0.722,1.300,0.961,0.427,0.743,0.703,�k��,4.8,��
2019/06/23,14:30,0.749,1.058,0.722,1.303,0.957,0.427,0.744,0.703,�k��,5.0,��
2019/06/23,14:40,0.749,1.059,0.723,1.303,0.962,0.427,0.743,0.704,�k�k��,5.1,��
2019/06/23,14:50,0.751,1.060,0.723,1.304,0.959,0.426,0.742,0.703,�k�k��,4.8,��
2019/06/23,15:00,0.749,1.060,0.722,1.302,0.960,0.427,0.744,0.704,�k�k��,4.4,��
2019/06/23,15:10,0.748,1.060,0.724,1.301,0.960,0.427,0.742,0.705,�k�k��,4.3,��
2019/06/23,15:20,0.748,1.062,0.722,1.300,0.959,0.426,0.743,0.705,�k��,3.7,��
2019/06/23,15:30,0.749,1.061,0.722,1.301,0.963,0.425,0.744,0.705,�k�k��,3.1,��
2019/06/23,15:40,0.750,1.061,0.721,1.302,0.962,0.428,0.743,0.702,�k�k��,3.4,��
2019/06/23,15:50,0.750,1.062,0.722,1.302,0.959,0.426,0.744,0.704,�k�k��,3.2,��
2019/06/23,16:00,0.748,1.061,0.724,1.307,0.958,0.427,0.744,0.703,�k�k��,3.3,��
2019/06/23,16:10,0.747,1.058,0.721,1.304,0.960,0.426,0.743,0.704,�k�k��,4.0,��
2019/06/23,16:20,0.749,1.063,0.722,1.305,0.960,0.426,0.743,0.704,�k�k��,4.1,��
2019/06/23,16:30,0.748,1.063,0.723,1.306,0.958,0.427,0.742,0.704,�k,4.2,��
2019/06/23,16:40,0.748,1.063,0.721,1.308,0.960,0.424,0.742,0.703,�k�k��,4.5,��
2019/06/23,16:50,0.748,1.064,0.722,1.308,0.960,0.425,0.743,0.703,�k�k��,3.5,��
2019/06/23,17:00,0.749,1.063,0.723,1.309,0.960,0.426,0.743,0.704,�k�k��,4.6,��
2019/06/23,17:10,0.748,1.063,0.725,1.304,0.959,0.427,0.743,0.703,�k�k��,5.0,��
2019/06/23,17:20,0.747,1.062,0.723,1.309,0.960,0.426,0.744,0.704,�k�k��,4.1,��
2019/06/23,17:30,0.748,1.062,0.723,1.309,0.961,0.426,0.742,0.705,�k�k��,3.7,��
2019/06/23,17:40,0.748,1.061,0.722,1.307,0.959,0.426,0.743,0.703,�k�k��,4.6,��
2019/06/23,17:50,0.747,1.063,0.725,1.308,0.960,0.428,0.743,0.706,�k,4.1,��
2019/06/23,18:00,0.748,1.061,0.724,1.308,0.959,0.426,0.743,0.704,�k,4.5,��
2019/06/23,18:10,0.747,1.063,0.727,1.307,0.961,0.427,0.743,0.706,�k,4.3,��
2019/06/23,18:20,0.748,1.064,0.727,1.309,0.961,0.426,0.744,0.705,�k,4.1,��
2019/06/23,18:30,0.747,1.061,0.725,1.307,0.959,0.425,0.742,0.705,�k,4.7,��
2019/06/23,18:40,0.750,1.061,0.725,1.310,0.962,0.426,0.743,0.703,�k,3.9,��
2019/06/23,18:50,0.749,1.062,0.726,1.307,0.962,0.425,0.745,0.705,�k,4.1,��
2019/06/23,19:00,0.749,1.063,0.726,1.309,0.961,0.427,0.745,0.704,�k,4.5,��
2019/06/23,19:10,0.749,1.063,0.726,1.308,0.963,0.427,0.743,0.706,�k�k��,4.9,��
2019/06/23,19:20,0.750,1.065,0.724,1.307,0.962,0.426,0.743,0.707,�k�k��,4.5,��
2019/06/23,19:30,0.751,1.062,0.724,1.309,0.963,0.427,0.744,0.704,�k�k��,4.7,��
2019/06/23,19:40,0.750,1.063,0.725,1.308,0.964,0.426,0.744,0.706,�k,4.2,�L
2019/06/23,19:50,0.750,1.065,0.726,1.309,0.963,0.426,0.744,0.706,�k,4.7,�L
2019/06/23,20:00,0.749,1.064,0.726,1.308,0.961,0.426,0.742,0.706,�k,4.0,�L
2019/06/23,20:10,0.748,1.066,0.724,1.309,0.965,0.426,0.744,0.705,�k,3.8,��
2019/06/23,20:20,0.749,1.066,0.724,1.309,0.962,0.426,0.744,0.705,�k,4.6,��
2019/06/23,20:30,0.750,1.067,0.726,1.308,0.963,0.427,0.743,0.707,�k,4.8,��
2019/06/23,20:40,0.751,1.065,0.725,1.308,0.962,0.427,0.743,0.707,�k,4.8,�L
2019/06/23,20:50,0.749,1.066,0.725,1.309,0.963,0.426,0.744,0.705,�k,3.8,�L
2019/06/23,21:00,0.750,1.066,0.724,1.307,0.961,0.426,0.743,0.707,�k,3.8,��
2019/06/23,21:10,0.749,1.064,0.725,1.308,0.963,0.427,0.742,0.706,�k,3.9,��
2019/06/23,21:20,0.751,1.063,0.724,1.308,0.964,0.427,0.742,0.705,�k,4.1,�L
2019/06/23,21:30,0.751,1.064,0.724,1.309,0.962,0.426,0.741,0.707,�k�k��,3.5,��
2019/06/23,21:40,0.751,1.065,0.727,1.310,0.964,0.427,0.743,0.707,�k�k��,3.3,��
2019/06/23,21:50,0.749,1.067,0.725,1.308,0.964,0.427,0.742,0.706,�k�k��,3.6,��
2019/06/23,22:00,0.749,1.065,0.723,1.306,0.963,0.426,0.743,0.706,�k�k��,3.0,��
2019/06/23,22:10,0.750,1.065,0.725,1.307,0.961,0.427,0.744,0.707,�k�k��,3.6,��
2019/06/23,22:20,0.751,1.066,0.726,1.310,0.963,0.427,0.742,0.707,�k�k��,3.6,��
2019/06/23,22:30,0.751,1.066,0.726,1.309,0.962,0.426,0.744,0.705,�k�k��,4.3,��
2019/06/23,22:40,0.749,1.064,0.723,1.309,0.963,0.427,0.742,0.707,�k�k��,3.4,��
2019/06/23,22:50,0.750,1.065,0.724,1.307,0.964,0.427,0.743,0.707,�k�k��,4.3,��
2019/06/23,23:00,0.750,1.064,0.726,1.310,0.963,0.426,0.743,0.706,�k�k��,4.6,��
2019/06/23,23:10,0.750,1.064,0.725,1.309,0.962,0.427,0.744,0.708,�k�k��,3.8,��
2019/06/23,23:20,0.750,1.066,0.724,1.308,0.965,0.427,0.742,0.706,�k�k��,3.4,��
2019/06/23,23:30,0.750,1.067,0.724,1.309,0.962,0.425,0.743,0.706,�k�k��,2.5,��
2019/06/23,23:40,0.749,1.065,0.726,1.308,0.964,0.427,0.742,0.708,�k�k��,2.6,��
2019/06/23,23:50,0.748,1.067,0.726,1.309,0.964,0.426,0.743,0.707,�k�k��,2.3,��
